Showing default

ORBCOMM FM 105, 41181

Orbit data source: Space-Track

ORBCOMM FM 105, 41181 is a payload satellite owned by Orbcomm (US) in LEO that was launched on Tue, 22 Dec 2015 UTC via an FALCON 9 launch vehicle from the Air Force Eastern Test Range (AFETR). Payload-class satellites include a variety of spacecraft equipped with specific instruments for various scientific and technological missions. These include communications satellites like Starlink; space stations such as the ISS; scientific satellites like the Hubble; Earth observation satellites from companies like Planet Labs, Umbra, and HawkEye 360; GPS; miniature CubeSats for education and research; and military/defense satellites.

Loading next visibility...
Identifier
41181, 2015-081C
Orbit
LEO
Country
Flag of USUS / ORB
Related business
Manufacturer
SNC Louisville
Mission
Non-operational Commercial Communications
Bus & Motor
SN-100A, Unknown motor
Mass
172 kg wet, 158 kg dry
Launch date (UTC)
2015-12-22 (10 years ago)
Launch vehicle
FALCON 9
Launch site
Air Force Eastern Test Range (AFETR)
Object type
Payload
Rocket body
Debris
Shape & HBR
Box + 1 Pan + 1 Ant, 10.3 m
Radar Cross Section
2.222 m², Medium (>0.1 m² and < 1m²)

Expand to show TLE details & history
Last TLE update: 1 day ago

TLE from 1 day ago
0 ORBCOMM FM 105
1 41181U 15081C   25342.70671603  .00000740  00000-0  25287-3 0  9994
2 41181  47.0005 113.7302 0001338   4.2380 355.8512 14.45398949525997
Epoch: 2025-12-08T16:57Z
TLE epoch observation values (Epoch: 2025-12-08T16:57:40.264Z)
Latitude
Longitude
141.61054°
Altitude
739.98 km
Speed
7.487 km/s
True Right ascension
07h 34m 55s
True Declination
0° 00' 00"
Sunlit
Object was in full shadow at epoch
Visualization orbit readout
Latitude
Unknown
Longitude
Unknown
Altitude
Unknown
Speed
Unknown
Apparent Right ascension
Unknown
Apparent Declination
Unknown
Sunlit
N/A
Visualization observer readout
Local Sidereal Time
20:15:04
Azimuth
Unknown
Elevation
Unknown
Doppler factor
Unknown
Orbital elements
Apogee altitude
742.896 km
Perigee altitude
740.991 km
Semi-major axis
7,120.08 km
Eccentricity
0.00013
Inclination
47.0005°
RAAN
113.7302°
Arg. of periapsis
4.238°
True anomaly
355.85009°
Mean anomaly
355.8512°
Eccentric anomaly
355.85065°
Mean motion
3.61257 °/min
Orbital period
99.65 mins
BSTAR
0.00025287
Loading maneuver chart data...
Computing Atmospheric mass density...
Loading historical data...
Loading historical data...
Loading historical data...
Loading historical data...
Loading historical data...
Loading historical data...
Loading historical data...

Documentation

Showing up to 5 results
|